Content
SEND FEEDBACK

United States of America Flag

HICO, WEST VIRGINIA


Home > North America > United States > West Virginia
Elevation: 198 feet     Latitude: 38 07N     Longitude: 081 00W

WEATHER
 
SELECT A DAY
Number of Records: 261,247;   Date Range: 1/1/95 - 3/21/16
 
SHARE

PRINT THIS DATA

[ ← Previous Day ]
WEATHER ALMANAC - FEBRUARY 1, 2013
[ Next Day → ]
[ °C ]   °F
Weather ElementAverageHighLow
Temperature15.1 °F26.6 °F (12:59 am)8.1 °F (8:51 am)
Dewpoint7.5 °F24.8 °F (1:11 am)-0.4 °F (8:07 am)
Humidity72.5 %93 % (1:11 am)52 % (3:51 pm)
Barometer30.08 in30.44 in (9:51 pm)29.75 in (2:11 am)
Wind Speed13.8 mph25.3 mph (5:49 am)
Wind Gust40.3 mph (2:32 am)
Weather ElementAverage
Visibility4.5 mi
Wind DirectionWNW (284 °)

Weather ElementTotal
Precipitation0.21 in
Heating Degree Days47.7 (Base 65)
Averaged from 57 records on February 1, 2013
WEATHER CONDITIONS BREAKOUT
WIND DIRECTION BREAKOUT
WEATHER BY HOUR - FEBRUARY 1, 2013
[ °C ]   °F
Local TimeTemperatureDewpointHumidityBarometerVisibilityWind DirectionWind SpeedGust SpeedPrecipitationEventsConditions
12:51 AM26.1 °F23.0 °F88 %29.88 in0.8 miWSW (250°)5.8 mph0.02 inSnowLight Snow
12:59 AM26.6 °F23.0 °F86 %29.77 in1.0 miWSW (250°)4.6 mph0.01 inSnowLight Snow
1:11 AM26.6 °F24.8 °F93 %29.76 in0.8 miWest (260°)5.8 mph0.01 inSnowLight Snow
1:51 AM26.1 °F24.1 °F92 %29.86 in0.5 miWSW (250°)5.8 mph0.06 inFog-SnowSnow
2:11 AM26.6 °F24.8 °F93 %29.75 in1.0 miWSW (240°)10.4 mph19.6 mph0.01 inSnowLight Snow
2:21 AM26.6 °F24.8 °F93 %29.75 in1.2 miWSW (250°)13.8 mph0.02 inSnowLight Snow
2:32 AM26.6 °F23.0 °F86 %29.78 in0.5 miWNW (290°)20.7 mph40.3 mph0.02 inFog-SnowSnow
2:34 AM26.6 °F23.0 °F86 %29.78 in0.2 miWNW (300°)20.7 mph40.3 mph0.02 inFog-SnowHeavy Snow
2:43 AM24.8 °F21.2 °F86 %29.79 in0.5 miWNW (300°)17.3 mph27.6 mph0.02 inFog-SnowSnow
2:51 AM24.1 °F21.0 °F88 %29.93 in0.5 miNW (320°)21.9 mph31.1 mph0.02 inFog-SnowSnow
3:27 AM19.4 °F15.8 °F86 %29.86 in1.0 miNW (310°)17.3 mph36.8 mph0.00 inSnowLight Snow
3:46 AM19.4 °F15.8 °F86 %29.88 in1.5 miWNW (290°)15.0 mph25.3 mph0.00 inSnowLight Snow
3:51 AM19.0 °F15.1 °F85 %30.01 in1.2 miWNW (290°)18.4 mph23.0 mph0.00 inSnowLight Snow
4:04 AM17.6 °F12.2 °F79 %29.89 in0.8 miWNW (300°)23.0 mph36.8 mph0.00 inSnowLight Snow
4:13 AM17.6 °F12.2 °F79 %29.90 in1.0 miWNW (300°)19.6 mph29.9 mph0.00 inSnowLight Snow
4:22 AM17.6 °F12.2 °F79 %29.91 in2.0 miNW (310°)18.4 mph32.2 mph0.00 inSnowLight Snow
4:51 AM16.0 °F5.0 °F62 %30.06 in2.0 miWNW (300°)20.7 mph38.0 mph0.00 inMostly Cloudy
4:56 AM15.8 °F5.0 °F62 %29.93 in3.0 miWNW (290°)21.9 mph38.0 mph0.00 inMostly Cloudy
5:08 AM15.8 °F6.8 °F68 %29.94 in4.0 miNW (310°)17.3 mph26.5 mph0.00 inSnowLight Snow
5:14 AM15.8 °F8.6 °F73 %29.94 in1.5 miNW (310°)12.7 mph26.5 mph0.00 inSnowLight Snow
5:33 AM14.0 °F6.8 °F73 %29.95 in3.0 miNW (320°)20.7 mph28.8 mph0.00 inSnowLight Snow
5:49 AM14.0 °F6.8 °F73 %29.97 in2.5 miWNW (300°)25.3 mph31.1 mph0.00 inSnowLight Snow
5:51 AM14.0 °F6.1 °F71 %30.10 in2.5 miNW (310°)20.7 mph31.1 mph0.00 inSnowLight Snow
5:59 AM12.2 °F6.8 °F79 %29.97 in1.5 miWNW (300°)24.2 mph31.1 mph0.00 inSnowLight Snow
6:11 AM12.2 °F5.0 °F73 %29.99 in2.5 miWNW (290°)17.3 mph32.2 mph0.00 inSnowLight Snow
6:16 AM12.2 °F5.0 °F73 %29.99 in3.0 miNW (320°)18.4 mph28.8 mph0.00 inSnowLight Snow
6:18 AM12.2 °F5.0 °F73 %29.99 in2.5 miNW (320°)21.9 mph28.8 mph0.00 inSnowLight Snow
6:30 AM12.2 °F5.0 °F73 %30.01 in2.5 miNW (310°)18.4 mph29.9 mph0.00 inSnowLight Snow
6:41 AM12.2 °F3.2 °F67 %30.01 in4.0 miWNW (300°)17.3 mph28.8 mph0.00 inSnowLight Snow
6:51 AM12.0 °F3.9 °F70 %30.17 in5.0 miWNW (300°)16.1 mph24.2 mph0.00 inSnowLight Snow
7:09 AM12.2 °F5.0 °F73 %30.04 in1.8 miNW (310°)13.8 mph24.2 mphSnowLight Snow
7:18 AM10.4 °F6.8 °F85 %30.04 in0.5 miNW (310°)13.8 mph25.3 mph0.00 inFog-SnowSnow
7:34 AM10.4 °F3.2 °F73 %30.05 in1.8 miNW (310°)18.4 mph26.5 mph0.00 inSnowLight Snow
7:42 AM8.6 °F1.4 °F73 %30.06 in2.5 miWNW (300°)16.1 mph26.5 mph0.00 inSnowLight Snow
7:51 AM9.0 °F0.0 °F67 %30.22 in4.0 miNW (310°)13.8 mph26.5 mph0.00 inSnowBlowing Snow
8:07 AM8.6 °F-0.4 °F67 %30.08 in7.0 miNW (320°)12.7 mph26.5 mphScattered Clouds
8:37 AM8.6 °F-0.4 °F67 %30.10 in9.0 miNW (310°)13.8 mph24.2 mphMostly Cloudy
8:51 AM8.1 °F0.0 °F70 %30.27 in6.0 miWNW (300°)13.8 mph20.7 mph0.00 inSnowLight Snow
9:51 AM9.0 °F1.0 °F70 %30.29 in2.5 miNNW (330°)9.2 mph16.1 mph0.00 inSnowLight Snow
10:04 AM8.6 °F1.4 °F73 %30.14 in6.0 miNNW (330°)10.4 mph0.00 inSnowLight Snow
10:51 AM10.0 °F1.0 °F67 %30.31 in3.0 miWNW (290°)12.7 mph19.6 mph0.00 inSnowLight Snow
11:11 AM10.4 °F-0.4 °F62 %30.17 in10.0 miWest (280°)12.7 mph20.7 mph0.00 inMostly Cloudy
11:51 AM10.9 °F0.0 °F61 %30.33 in10.0 miWNW (290°)11.5 mph0.00 inMostly Cloudy
12:09 PM12.2 °F1.4 °F62 %30.19 in10.0 miWNW (300°)11.5 mph19.6 mph0.00 inOvercast
12:51 PM12.9 °F1.0 °F59 %30.32 in10.0 miWNW (290°)10.4 mph18.4 mph0.00 inMostly Cloudy
1:18 PM14.0 °F1.4 °F57 %30.18 in10.0 miWest (260°)13.8 mph20.7 mphOvercast
1:51 PM15.1 °F1.0 °F54 %30.32 in10.0 miWest (280°)11.5 mph21.9 mphMostly Cloudy
2:51 PM15.1 °F1.0 °F54 %30.33 in10.0 miNW (320°)9.2 mphPartly Cloudy
3:51 PM16.0 °F1.0 °F52 %30.34 in10.0 miNW (310°)9.2 mphClear
4:51 PM15.1 °F1.0 °F54 %30.37 in10.0 miWest (280°)8.1 mphClear
5:51 PM12.9 °F1.0 °F59 %30.38 in10.0 miWNW (290°)11.5 mphClear
6:51 PM12.0 °F1.0 °F61 %30.40 in10.0 miWNW (290°)4.6 mphClear
7:51 PM10.9 °F0.0 °F61 %30.43 in10.0 miWest (280°)3.5 mphClear
8:51 PM10.4 °F-0.4 °F62 %30.24 in10.0 miWest (270°)5.8 mphClear
9:51 PM9.0 °F1.0 °F70 %30.44 in10.0 miCalmClear
10:51 PM8.1 °F1.9 °F76 %30.43 in10.0 miCalmClear
11:51 PM9.0 °F0.0 °F67 %30.42 in10.0 miWSW (240°)4.6 mphClear
Hourly data recorded from KBKW, located miles away from Hico, West Virginia




STORIES FROM OUR PARTNERS